Home   Weather   Udon Thani   Past weeks

Flag for Thailand Past Weather in Udon Thani, Thailand — Yesterday and Last 2 Weeks

Now
79 °F

Broken clouds.


Feels Like: 83 °F
Forecast: 77 / 89 °F
Wind: No wind

Location: Udon Thani Airport

Current Time: Jul 23, 2017 at 8:02:22 am

Latest Report: Jul 23, 2017 at 7:00 am


Visibility: N/A

Pressure: 29.80 "Hg

Humidity: 100%

Dew Point: 79 °F

Location of Udon ThaniLocation

Past Weather in Udon Thani — Graph

°F

Udon Thani Temperature Yesterday

Maximum temperature yesterday: 88 °F (at 2:00 pm)
Minimum temperature yesterday: 77 °F (at 5:00 am)
Average temperature yesterday: 81 °F

High & Low Weather Summary for the Past Weeks

 TemperatureHumidityPressure
High91 °F (Jul 15, 3:00 pm)100% (Jul 8, 6:00 am)29.83 "Hg (Jul 8, 6:00 am)
Low75 °F (Jul 12, 10:00 pm)59% (Jul 15, 3:00 pm)29.50 "Hg (Jul 17, 5:00 am)
Average82 °F85%29.72 "Hg
* Reported Jul 8 6:00 am — Jul 23 6:00 am, Udon Thani. Weather by CustomWeather, © 2017

Note: Actual official high and low records may vary slightly from our data, if they occured in-between our weather recording intervals... More about our weather records

Advertising

Udon Thani Weather History for the Previous 24 Hours

Scroll right to see more
 ConditionsComfort  
Time TempWeatherWind HumidityBarometerVisibility
6:00 am
Sun, Jul 23
79 °FBroken clouds.5 mph100%29.77 "HgN/A
5:00 am79 °FPartly cloudy.3 mph94%29.77 "HgN/A
2:00 am79 °FPassing clouds.1 mph100%29.77 "HgN/A
1:00 am79 °FPassing clouds.3 mph100%29.80 "HgN/A
12:00 am79 °FClear.No wind100%29.83 "Hg10 mi
11:00 pm
Sat, Jul 22
79 °FClear.2 mph100%29.83 "Hg10 mi
10:00 pm79 °FPassing clouds.3 mph100%29.83 "HgN/A
9:00 pm79 °FClear.1 mph100%29.80 "Hg10 mi
8:00 pm81 °FClear.2 mph94%29.80 "Hg10 mi
7:00 pm82 °FClear.3 mph89%29.74 "Hg10 mi
6:00 pm84 °FPassing clouds.3 mph84%29.71 "HgN/A
5:00 pm84 °FPassing clouds.5 mph84%29.71 "HgN/A
4:00 pm81 °FLight rain. Partly sunny.5 mph94%29.71 "HgN/A
3:00 pm84 °FThunderstorms. Partly sunny.9 mph79%29.74 "HgN/A
2:00 pm88 °FScattered showers. Scattered clouds.6 mph66%29.77 "HgN/A
1:00 pm86 °FPartly sunny.5 mph75%29.80 "HgN/A
12:00 pm84 °FPartly sunny.1 mph79%29.80 "HgN/A
11:00 am82 °FPartly sunny.2 mph84%29.83 "HgN/A
10:00 am81 °FPartly sunny.3 mph89%29.83 "HgN/A
9:00 am79 °FMostly cloudy.1 mph94%29.83 "HgN/A
8:00 am77 °FMostly cloudy.No wind100%29.80 "HgN/A
Weather by CustomWeather, © 2017

See weather overviewHow to use our weather pages